| time (UTC) | temp C | wind direction | speed KPH | gust KPH | rain 1hr cm | rain 24hr cm | rain mn cm | humidity % | barometer mb |
| 20260509102348 | 12 | 117 | 6.4 | 14.5 | 0.00 | 0.00 | 0.00 | 88 | 1002.5 |
| 20260509102126 | 12 | 146 | 6.4 | 16.1 | 0.00 | 0.00 | 0.00 | 88 | 1002.4 |
| 20260509101336 | 12 | 131 | 4.8 | 16.1 | 0.00 | 0.00 | 0.00 | 88 | 1002.5 |
| 20260509100830 | 12 | 264 | 4.8 | 19.3 | 0.00 | 0.00 | 0.00 | 88 | 1002.7 |
| 20260509100324 | 12 | 223 | 4.8 | 19.3 | 0.00 | 0.00 | 0.00 | 88 | 1002.5 |
| 20260509095818 | 12 | 232 | 6.4 | 16.1 | 0.00 | 0.00 | 0.00 | 89 | 1002.6 |
| 20260509095553 | 12 | 206 | 4.8 | 16.1 | 0.00 | 0.00 | 0.00 | 89 | 1002.6 |
| 20260509094806 | 12 | 196 | 4.8 | 11.3 | 0.00 | 0.00 | 0.00 | 89 | 1002.8 |
| 20260509094300 | 12 | 224 | 4.8 | 11.3 | 0.00 | 0.00 | 0.00 | 89 | 1002.9 |
| 20260509093755 | 12 | 121 | 4.8 | 17.7 | 0.00 | 0.00 | 0.00 | 89 | 1002.8 |
| 20260509093527 | 12 | 135 | 4.8 | 17.7 | 0.00 | 0.00 | 0.00 | 89 | 1003.0 |
| 20260509092742 | 12 | 238 | 3.2 | 12.9 | 0.00 | 0.00 | 0.00 | 89 | 1003.0 |
| 20260509092237 | 12 | 214 | 4.8 | 14.5 | 0.00 | 0.00 | 0.00 | 89 | 1003.0 |
| 20260509091730 | 12 | 173 | 4.8 | 14.5 | 0.00 | 0.00 | 0.00 | 89 | 1003.0 |
| 20260509091224 | 12 | 217 | 4.8 | 12.9 | 0.00 | 0.00 | 0.00 | 89 | 1003.0 |
| 20260509090718 | 12 | 188 | 4.8 | 14.5 | 0.00 | 0.00 | 0.00 | 88 | 1002.9 |
| 20260509090212 | 12 | 269 | 4.8 | 16.1 | 0.00 | 0.00 | 0.00 | 88 | 1003.1 |
| 20260509085706 | 12 | 229 | 3.2 | 16.1 | 0.00 | 0.00 | 0.00 | 88 | 1003.1 |
| 20260509085200 | 12 | 217 | 4.8 | 16.1 | 0.00 | 0.00 | 0.00 | 88 | 1003.1 |
| 20260509084654 | 12 | 238 | 4.8 | 16.1 | 0.00 | 0.00 | 0.00 | 88 | 1003.1 |
| 20260509084148 | 12 | 234 | 4.8 | 19.3 | 0.00 | 0.00 | 0.00 | 88 | 1003.2 |
| 20260509083642 | 12 | 212 | 4.8 | 19.3 | 0.00 | 0.00 | 0.00 | 88 | 1003.3 |
| 20260509083136 | 12 | 197 | 4.8 | 14.5 | 0.00 | 0.00 | 0.00 | 88 | 1003.3 |
| 20260509082912 | 12 | 161 | 3.2 | 11.3 | 0.00 | 0.00 | 0.00 | 88 | 1003.3 |
| 20260509082123 | 12 | 218 | 3.2 | 9.7 | 0.00 | 0.00 | 0.00 | 88 | 1003.4 |
| 20260509081618 | 12 | 201 | 3.2 | 12.9 | 0.00 | 0.00 | 0.00 | 88 | 1003.5 |
| 20260509081112 | 12 | 211 | 3.2 | 12.9 | 0.00 | 0.00 | 0.00 | 87 | 1003.4 |
| 20260509080606 | 12 | 224 | 3.2 | 12.9 | 0.00 | 0.00 | 0.00 | 87 | 1003.4 |
| 20260509075553 | 12 | 218 | 3.2 | 9.7 | 0.00 | 0.00 | 0.00 | 87 | 1003.7 |
| 20260509075048 | 12 | 219 | 3.2 | 9.7 | 0.00 | 0.00 | 0.00 | 87 | 1003.7 |
| 20260509074543 | 12 | 229 | 3.2 | 11.3 | 0.00 | 0.00 | 0.00 | 86 | 1003.6 |
| 20260509074036 | 12 | 244 | 3.2 | 11.3 | 0.00 | 0.00 | 0.00 | 86 | 1003.7 |
| 20260509073530 | 12 | 144 | 3.2 | 11.3 | 0.00 | 0.00 | 0.00 | 86 | 1003.7 |
| 20260509073024 | 12 | 184 | 3.2 | 16.1 | 0.00 | 0.00 | 0.00 | 86 | 1003.8 |
| 20260509072518 | 12 | 193 | 3.2 | 16.1 | 0.00 | 0.00 | 0.00 | 85 | 1003.9 |
| 20260509072013 | 12 | 197 | 3.2 | 9.7 | 0.00 | 0.00 | 0.00 | 85 | 1004.0 |
| 20260509071506 | 12 | 186 | 1.6 | 9.7 | 0.00 | 0.00 | 0.00 | 85 | 1003.9 |
| 20260509070959 | 12 | 219 | 1.6 | 11.3 | 0.00 | 0.00 | 0.00 | 84 | 1004.2 |
| 20260509070757 | 13 | 210 | 3.2 | 11.3 | 0.00 | 0.00 | 0.00 | 84 | 1004.5 |
| 20260509070750 | 13 | 260 | 3.2 | 11.3 | 0.00 | 0.00 | 0.00 | 84 | 1004.3 |
| 20260509065442 | 13 | 170 | 3.2 | 9.7 | 0.00 | 0.00 | 0.00 | 83 | 1004.5 |
| 20260509064957 | 13 | 212 | 3.2 | 12.9 | 0.00 | 0.00 | 0.00 | 82 | 1004.6 |
| 20260509064948 | 13 | 262 | 3.2 | 9.7 | 0.00 | 0.00 | 0.00 | 83 | 1004.6 |
| 20260509064207 | 13 | 217 | 4.8 | 12.9 | 0.00 | 0.00 | 0.00 | 81 | 1004.6 |
| 20260509063418 | 13 | 248 | 3.2 | 12.9 | 0.00 | 0.00 | 0.00 | 81 | 1004.6 |
| 20260509062912 | 13 | 201 | 3.2 | 9.7 | 0.00 | 0.00 | 0.00 | 81 | 1004.6 |
| 20260509062405 | 13 | 219 | 4.8 | 11.3 | 0.00 | 0.00 | 0.00 | 80 | 1004.6 |
| 20260509061900 | 13 | 155 | 3.2 | 11.3 | 0.00 | 0.00 | 0.00 | 80 | 1004.6 |
| 20260509061354 | 13 | 221 | 1.6 | 9.7 | 0.00 | 0.00 | 0.00 | 80 | 1004.6 |
| 20260509060848 | 12 | 205 | 3.2 | 9.7 | 0.00 | 0.00 | 0.00 | 79 | 1004.9 |
| 20260509060622 | 12 | 275 | 3.2 | 9.7 | 0.00 | 0.00 | 0.00 | 79 | 1005.1 |
| 20260509060123 | 12 | 243 | 1.6 | 6.4 | 0.00 | 0.00 | 0.00 | 78 | 1005.0 |
| 20260509055329 | 12 | 197 | 1.6 | 4.8 | 0.00 | 0.00 | 0.00 | 75 | 1005.0 |
| 20260509055103 | 12 | 110 | 1.6 | 6.4 | 0.00 | 0.00 | 0.00 | 69 | 1005.0 |
| 20260509054318 | 12 | 193 | 1.6 | 6.4 | 0.00 | 0.00 | 0.00 | 66 | 1005.1 |
| 20260509053812 | 12 | 231 | 1.6 | 4.8 | 0.00 | 0.00 | 0.00 | 63 | 1005.0 |
| 20260509053306 | 12 | 168 | 3.2 | 12.9 | 0.00 | 0.00 | 0.00 | 61 | 1005.1 |
| 20260509052800 | 12 | 172 | 3.2 | 12.9 | 0.00 | 0.00 | 0.00 | 59 | 1005.2 |
| 20260509052254 | 12 | 155 | 1.6 | 12.9 | 0.00 | 0.00 | 0.00 | 57 | 1005.2 |
| 20260509051748 | 12 | 219 | 1.6 | 12.9 | 0.00 | 0.00 | 0.00 | 55 | 1005.2 |
| 20260509051243 | 12 | 240 | 3.2 | 9.7 | 0.00 | 0.00 | 0.00 | 55 | 1005.3 |
| 20260509050737 | 12 | 204 | 1.6 | 8.0 | 0.00 | 0.00 | 0.00 | 55 | 1005.2 |
| 20260509050230 | 12 | 191 | 1.6 | 8.0 | 0.00 | 0.00 | 0.00 | 55 | 1005.2 |
| 20260509045724 | 12 | 213 | 0.0 | 8.0 | 0.00 | 0.00 | 0.00 | 55 | 1005.1 |
| 20260509045218 | 12 | 214 | 1.6 | 4.8 | 0.00 | 0.00 | 0.00 | 56 | 1005.0 |
| 20260509044712 | 12 | 203 | 1.6 | 4.8 | 0.00 | 0.00 | 0.00 | 58 | 1005.0 |
| 20260509044445 | 11 | 162 | 1.6 | 4.8 | 0.00 | 0.00 | 0.00 | 57 | 1005.1 |
| 20260509043939 | 11 | 233 | 1.6 | 8.0 | 0.00 | 0.00 | 0.00 | 58 | 1005.1 |
| 20260509043154 | 11 | 101 | 1.6 | 9.7 | 0.00 | 0.00 | 0.00 | 59 | 1005.1 |
| 20260509042647 | 10 | 200 | 0.0 | 8.0 | 0.00 | 0.00 | 0.00 | 64 | 1005.1 |
| 20260509042141 | 10 | 204 | 0.0 | 1.6 | 0.00 | 0.00 | 0.00 | 66 | 1005.2 |
| 20260509041640 | 9 | 207 | 0.0 | 0.0 | 0.00 | 0.00 | 0.00 | 68 | 1005.2 |
| 20260509041126 | 9 | 202 | 0.0 | 0.0 | 0.00 | 0.00 | 0.00 | 67 | 1005.2 |
| 20260509040620 | 9 | 204 | 0.0 | 0.0 | 0.00 | 0.00 | 0.00 | 67 | 1005.3 |
| 20260509040115 | 8 | 204 | 0.0 | 0.0 | 0.00 | 0.00 | 0.00 | 66 | 1005.4 |
| 20260509035607 | 8 | 204 | 0.0 | 0.0 | 0.00 | 0.00 | 0.00 | 64 | 1005.4 |
| 20260509035101 | 8 | 204 | 0.0 | 0.0 | 0.00 | 0.00 | 0.00 | 63 | 1005.4 |
| 20260509034832 | 8 | 204 | 0.0 | 0.0 | 0.00 | 0.00 | 0.00 | 63 | 1005.5 |
| 20260509034050 | 8 | 204 | 0.0 | 0.0 | 0.00 | 0.00 | 0.00 | 62 | 1005.6 |
| 20260509033543 | 9 | 204 | 0.0 | 0.0 | 0.00 | 0.00 | 0.00 | 60 | 1005.7 |
| 20260509033316 | 9 | 204 | 0.0 | 0.0 | 0.00 | 0.00 | 0.00 | 60 | 1005.7 |
| 20260509032530 | 9 | 204 | 0.0 | 0.0 | 0.00 | 0.00 | 0.00 | 59 | 1005.7 |
| 20260509032307 | 9 | 204 | 0.0 | 0.0 | 0.00 | 0.00 | 0.00 | 58 | 1005.7 |
| 20260509031519 | 9 | 204 | 0.0 | 0.0 | 0.00 | 0.00 | 0.00 | 57 | 1005.9 |
| 20260509031012 | 9 | 204 | 0.0 | 0.0 | 0.00 | 0.00 | 0.00 | 56 | 1005.9 |
| 20260509030507 | 9 | 204 | 0.0 | 0.0 | 0.00 | 0.00 | 0.00 | 56 | 1005.9 |
| 20260509030001 | 9 | 204 | 0.0 | 0.0 | 0.00 | 0.00 | 0.00 | 55 | 1005.9 |
| 20260509025455 | 9 | 204 | 0.0 | 0.0 | 0.00 | 0.00 | 0.00 | 54 | 1006.0 |
| 20260509024949 | 9 | 204 | 0.0 | 0.0 | 0.00 | 0.00 | 0.00 | 55 | 1006.1 |
| 20260509024443 | 9 | 204 | 0.0 | 0.0 | 0.00 | 0.00 | 0.00 | 52 | 1006.2 |
| 20260509023937 | 9 | 204 | 0.0 | 0.0 | 0.00 | 0.00 | 0.00 | 52 | 1006.2 |
| 20260509023430 | 9 | 204 | 0.0 | 0.0 | 0.00 | 0.00 | 0.00 | 51 | 1006.3 |
| 20260509022925 | 9 | 204 | 0.0 | 0.0 | 0.00 | 0.00 | 0.00 | 51 | 1006.4 |
| 20260509022419 | 9 | 207 | 0.0 | 0.0 | 0.00 | 0.00 | 0.00 | 52 | 1006.4 |
| 20260509021913 | 10 | 208 | 0.0 | 0.0 | 0.00 | 0.00 | 0.00 | 53 | 1006.5 |
| 20260509021406 | 10 | 208 | 0.0 | 0.0 | 0.00 | 0.00 | 0.00 | 52 | 1006.5 |
| 20260509021142 | 10 | 208 | 0.0 | 0.0 | 0.00 | 0.00 | 0.00 | 50 | 1006.5 |
| 20260509020355 | 10 | 211 | 0.0 | 0.0 | 0.00 | 0.00 | 0.00 | 50 | 1006.5 |
| 20260509015849 | 10 | 211 | 0.0 | 0.0 | 0.00 | 0.00 | 0.00 | 52 | 1006.4 |
| 20260509015343 | 10 | 211 | 0.0 | 0.0 | 0.00 | 0.00 | 0.00 | 52 | 1006.3 |
| 20260509014837 | 10 | 197 | 0.0 | 0.0 | 0.00 | 0.00 | 0.00 | 50 | 1006.4 |
| 20260509014331 | 10 | 198 | 0.0 | 1.6 | 0.00 | 0.00 | 0.00 | 49 | 1006.3 |
| 20260509013825 | 11 | 198 | 0.0 | 1.6 | 0.00 | 0.00 | 0.00 | 46 | 1006.3 |
| 20260509013319 | 11 | 198 | 0.0 | 0.0 | 0.00 | 0.00 | 0.00 | 46 | 1006.3 |
| 20260509012813 | 11 | 198 | 0.0 | 0.0 | 0.00 | 0.00 | 0.00 | 45 | 1006.3 |
| 20260509012307 | 11 | 198 | 0.0 | 0.0 | 0.00 | 0.00 | 0.00 | 48 | 1006.2 |
| 20260509011801 | 11 | 198 | 0.0 | 0.0 | 0.00 | 0.00 | 0.00 | 45 | 1006.2 |
| 20260509011256 | 12 | 198 | 0.0 | 0.0 | 0.00 | 0.00 | 0.00 | 44 | 1006.3 |
| 20260509011028 | 12 | 198 | 0.0 | 0.0 | 0.00 | 0.00 | 0.00 | 42 | 1006.2 |
| 20260509010243 | 12 | 198 | 0.0 | 0.0 | 0.00 | 0.00 | 0.00 | 42 | 1006.3 |
| 20260509005752 | 13 | 198 | 0.0 | 0.0 | 0.00 | 0.00 | 0.00 | 38 | 1006.3 |
| 20260509005744 | 13 | 198 | 0.0 | 0.0 | 0.00 | 0.00 | 0.00 | 38 | 1006.3 |
| 20260509005004 | 14 | 198 | 0.0 | 0.0 | 0.00 | 0.00 | 0.00 | 36 | 1006.3 |
| 20260509004219 | 15 | 199 | 0.0 | 0.0 | 0.00 | 0.00 | 0.00 | 33 | 1006.3 |
| 20260509003951 | 16 | 199 | 0.0 | 0.0 | 0.00 | 0.00 | 0.00 | 33 | 1006.3 |
| 20260509003207 | 16 | 199 | 0.0 | 1.6 | 0.00 | 0.00 | 0.00 | 29 | 1006.4 |
| 20260509002701 | 17 | 198 | 0.0 | 1.6 | 0.00 | 0.00 | 0.00 | 28 | 1006.5 |
| 20260509002155 | 17 | 198 | 0.0 | 1.6 | 0.00 | 0.00 | 0.00 | 26 | 1006.4 |
| 20260509001927 | 17 | 198 | 0.0 | 1.6 | 0.00 | 0.00 | 0.00 | 26 | 1006.5 |
| 20260509001143 | 17 | 195 | 0.0 | 4.8 | 0.00 | 0.00 | 0.00 | 24 | 1006.5 |
| 20260509000637 | 17 | 195 | 0.0 | 4.8 | 0.00 | 0.00 | 0.00 | 25 | 1006.5 |
| 20260509000130 | 17 | 212 | 0.0 | 3.2 | 0.00 | 0.00 | 0.00 | 23 | 1006.5 |
| 20260508235625 | 17 | 207 | 0.0 | 3.2 | 0.00 | 0.00 | 0.00 | 22 | 1006.6 |
| 20260508235357 | 17 | 210 | 0.0 | 3.2 | 0.00 | 0.00 | 0.00 | 23 | 1006.7 |
| 20260508234613 | 17 | 210 | 1.6 | 4.8 | 0.00 | 0.00 | 0.00 | 24 | 1006.8 |
| 20260508234107 | 17 | 205 | 1.6 | 4.8 | 0.00 | 0.00 | 0.00 | 22 | 1006.9 |
| 20260508233601 | 17 | 202 | 1.6 | 4.8 | 0.00 | 0.00 | 0.00 | 23 | 1007.0 |
| 20260508233335 | 17 | 232 | 1.6 | 3.2 | 0.00 | 0.00 | 0.00 | 22 | 1007.0 |
| 20260508232549 | 17 | 209 | 1.6 | 3.2 | 0.00 | 0.00 | 0.00 | 22 | 1007.2 |
| 20260508232043 | 17 | 212 | 1.6 | 3.2 | 0.00 | 0.00 | 0.00 | 22 | 1007.1 |
| 20260508231537 | 17 | 220 | 0.0 | 3.2 | 0.00 | 0.00 | 0.00 | 21 | 1007.1 |
| 20260508231032 | 17 | 217 | 0.0 | 3.2 | 0.00 | 0.00 | 0.00 | 23 | 1007.2 |
| 20260508230525 | 16 | 234 | 0.0 | 3.2 | 0.00 | 0.00 | 0.00 | 26 | 1007.4 |
| 20260508230019 | 16 | 217 | 1.6 | 3.2 | 0.00 | 0.00 | 0.00 | 24 | 1007.3 |
| 20260508225512 | 15 | 207 | 1.6 | 6.4 | 0.00 | 0.00 | 0.00 | 26 | 1007.4 |
| 20260508225251 | 15 | 280 | 3.2 | 6.4 | 0.00 | 0.00 | 0.00 | 27 | 1007.4 |
| 20260508224500 | 15 | 271 | 3.2 | 8.0 | 0.00 | 0.00 | 0.00 | 26 | 1007.5 |
| 20260508223955 | 15 | 274 | 4.8 | 11.3 | 0.00 | 0.00 | 0.00 | 27 | 1007.5 |
| 20260508223448 | 15 | 280 | 6.4 | 11.3 | 0.00 | 0.00 | 0.00 | 28 | 1007.4 |
| 20260508222943 | 15 | 303 | 6.4 | 12.9 | 0.00 | 0.00 | 0.00 | 31 | 1007.5 |
| 20260508222437 | 15 | 289 | 6.4 | 12.9 | 0.00 | 0.00 | 0.00 | 29 | 1007.5 |
| 20260508221932 | 15 | 285 | 4.8 | 11.3 | 0.00 | 0.00 | 0.00 | 28 | 1007.7 |
| 20260508221424 | 15 | 291 | 3.2 | 11.3 | 0.00 | 0.00 | 0.00 | 32 | 1007.7 |
| 20260508220918 | 15 | 286 | 3.2 | 11.3 | 0.00 | 0.00 | 0.00 | 30 | 1007.8 |
| 20260508220421 | 15 | 278 | 4.8 | 11.3 | 0.00 | 0.00 | 0.00 | 28 | 1007.9 |
| 20260508215916 | 15 | 286 | 6.4 | 12.9 | 0.00 | 0.00 | 0.00 | 28 | 1008.0 |
| 20260508215657 | 15 | 273 | 6.4 | 12.9 | 0.00 | 0.00 | 0.00 | 28 | 1008.0 |
| 20260508214916 | 15 | 278 | 4.8 | 9.7 | 0.00 | 0.00 | 0.00 | 28 | 1008.0 |
| 20260508214415 | 15 | 296 | 3.2 | 9.7 | 0.00 | 0.00 | 0.00 | 31 | 1007.9 |
| 20260508213942 | 14 | 253 | 4.8 | 9.7 | 0.00 | 0.00 | 0.00 | 31 | 1007.9 |
| 20260508213932 | 15 | 243 | 3.2 | 8.0 | 0.00 | 0.00 | 0.00 | 30 | 1008.0 |
| 20260508213158 | 14 | 285 | 4.8 | 16.1 | 0.00 | 0.00 | 0.00 | 31 | 1008.0 |
| 20260508212655 | 14 | 293 | 4.8 | 16.1 | 0.00 | 0.00 | 0.00 | 35 | 1008.0 |
| 20260508212158 | 13 | 290 | 6.4 | 12.9 | 0.00 | 0.00 | 0.00 | 34 | 1008.0 |
| 20260508211412 | 13 | 277 | 8.0 | 14.5 | 0.00 | 0.00 | 0.00 | 39 | 1008.0 |
| 20260508210914 | 13 | 293 | 8.0 | 14.5 | 0.00 | 0.00 | 0.00 | 42 | 1008.1 |
| 20260508210413 | 13 | 300 | 8.0 | 12.9 | 0.00 | 0.00 | 0.00 | 47 | 1008.3 |
| 20260508205916 | 13 | 287 | 8.0 | 12.9 | 0.00 | 0.00 | 0.00 | 44 | 1008.3 |
| 20260508205452 | 13 | 295 | 8.0 | 12.9 | 0.00 | 0.00 | 0.00 | 44 | 1008.4 |
| 20260508205437 | 13 | 282 | 8.0 | 12.9 | 0.00 | 0.00 | 0.00 | 47 | 1008.4 |
| 20260508204415 | 13 | 283 | 8.0 | 16.1 | 0.00 | 0.00 | 0.00 | 43 | 1008.4 |
| 20260508203910 | 13 | 269 | 9.7 | 16.1 | 0.00 | 0.00 | 0.00 | 39 | 1008.5 |
| 20260508203403 | 13 | 290 | 8.0 | 14.5 | 0.00 | 0.00 | 0.00 | 37 | 1008.6 |
| 20260508202857 | 13 | 269 | 6.4 | 14.5 | 0.00 | 0.00 | 0.00 | 44 | 1008.7 |
| 20260508202351 | 13 | 300 | 8.0 | 16.1 | 0.00 | 0.00 | 0.00 | 41 | 1008.7 |
| 20260508202133 | 13 | 291 | 8.0 | 16.1 | 0.00 | 0.00 | 0.00 | 45 | 1008.8 |
| 20260508201338 | 13 | 278 | 8.0 | 16.1 | 0.00 | 0.00 | 0.00 | 42 | 1008.9 |
| 20260508200833 | 13 | 279 | 9.7 | 16.1 | 0.00 | 0.00 | 0.00 | 44 | 1008.9 |
| 20260508200327 | 13 | 278 | 8.0 | 14.5 | 0.00 | 0.00 | 0.00 | 39 | 1008.9 |
| 20260508195820 | 13 | 290 | 8.0 | 14.5 | 0.00 | 0.00 | 0.00 | 45 | 1009.0 |
| 20260508195602 | 13 | 291 | 8.0 | 14.5 | 0.00 | 0.00 | 0.00 | 49 | 1009.1 |
| 20260508194820 | 13 | 260 | 6.4 | 12.9 | 0.00 | 0.00 | 0.00 | 46 | 1009.2 |
| 20260508194320 | 13 | 282 | 4.8 | 12.9 | 0.00 | 0.00 | 0.00 | 44 | 1009.1 |
| 20260508193819 | 13 | 267 | 4.8 | 11.3 | 0.00 | 0.00 | 0.00 | 49 | 1009.2 |
| 20260508193319 | 13 | 260 | 4.8 | 9.7 | 0.00 | 0.00 | 0.00 | 48 | 1009.2 |
| 20260508192818 | 13 | 248 | 6.4 | 14.5 | 0.00 | 0.00 | 0.00 | 45 | 1009.3 |
| 20260508192318 | 13 | 269 | 4.8 | 14.5 | 0.00 | 0.00 | 0.00 | 45 | 1009.3 |
| 20260508191818 | 13 | 263 | 4.8 | 11.3 | 0.00 | 0.00 | 0.00 | 46 | 1009.3 |
| 20260508191603 | 13 | 238 | 6.4 | 11.3 | 0.00 | 0.00 | 0.00 | 50 | 1009.5 |
| 20260508190818 | 12 | 275 | 4.8 | 11.3 | 0.00 | 0.00 | 0.00 | 55 | 1009.5 |
| 20260508190319 | 12 | 215 | 6.4 | 12.9 | 0.00 | 0.00 | 0.00 | 56 | 1009.5 |
| 20260508185819 | 12 | 245 | 8.0 | 16.1 | 0.00 | 0.00 | 0.00 | 61 | 1009.5 |
| 20260508185320 | 12 | 284 | 9.7 | 16.1 | 0.00 | 0.00 | 0.00 | 62 | 1009.5 |
| 20260508185105 | 12 | 290 | 9.7 | 17.7 | 0.00 | 0.00 | 0.00 | 66 | 1009.4 |
| 20260508184603 | 12 | 281 | 9.7 | 17.7 | 0.00 | 0.00 | 0.00 | 65 | 1009.5 |
| 20260508183821 | 12 | 277 | 9.7 | 16.1 | 0.00 | 0.00 | 0.00 | 68 | 1009.5 |
| 20260508183315 | 12 | 283 | 9.7 | 17.7 | 0.00 | 0.00 | 0.00 | 66 | 1009.6 |
| 20260508182845 | 12 | 284 | 9.7 | 17.7 | 0.00 | 0.00 | 0.00 | 67 | 1009.7 |
| 20260508182833 | 12 | 274 | 9.7 | 17.7 | 0.00 | 0.00 | 0.00 | 69 | 1009.6 |
| 20260508181813 | 12 | 276 | 8.0 | 14.5 | 0.00 | 0.00 | 0.00 | 61 | 1009.7 |
| 20260508181311 | 12 | 294 | 9.7 | 14.5 | 0.00 | 0.00 | 0.00 | 59 | 1009.6 |
| 20260508180811 | 12 | 283 | 9.7 | 14.5 | 0.00 | 0.00 | 0.00 | 64 | 1009.8 |
| 20260508180311 | 12 | 266 | 9.7 | 14.5 | 0.00 | 0.00 | 0.00 | 62 | 1009.9 |
| 20260508175812 | 12 | 269 | 9.7 | 16.1 | 0.00 | 0.00 | 0.00 | 65 | 1010.0 |
| 20260508175417 | 12 | 286 | 8.0 | 14.5 | 0.00 | 0.00 | 0.00 | 61 | 1010.2 |
| 20260508175358 | 12 | 285 | 8.0 | 16.1 | 0.00 | 0.00 | 0.00 | 67 | 1010.1 |
| 20260508174829 | 12 | 285 | 8.0 | 14.5 | 0.00 | 0.00 | 0.00 | 64 | 1010.2 |
| 20260508173808 | 12 | 285 | 8.0 | 14.5 | 0.00 | 0.00 | 0.00 | 49 | 1010.2 |
| 20260508173309 | 12 | 298 | 8.0 | 16.1 | 0.00 | 0.00 | 0.00 | 49 | 1010.2 |
| 20260508172809 | 12 | 285 | 9.7 | 16.1 | 0.00 | 0.00 | 0.00 | 51 | 1010.4 |
| 20260508172338 | 12 | 290 | 8.0 | 14.5 | 0.00 | 0.00 | 0.00 | 47 | 1010.5 |
| 20260508172326 | 12 | 298 | 8.0 | 14.5 | 0.00 | 0.00 | 0.00 | 45 | 1010.5 |
| 20260508171302 | 12 | 285 | 6.4 | 14.5 | 0.00 | 0.00 | 0.00 | 45 | 1010.6 |
| 20260508170803 | 12 | 270 | 6.4 | 14.5 | 0.00 | 0.00 | 0.00 | 47 | 1010.6 |
| 20260508170304 | 12 | 271 | 8.0 | 12.9 | 0.00 | 0.00 | 0.00 | 46 | 1010.7 |
| 20260508165802 | 12 | 301 | 8.0 | 12.9 | 0.00 | 0.00 | 0.00 | 50 | 1010.7 |
| 20260508165306 | 12 | 289 | 8.0 | 12.9 | 0.00 | 0.00 | 0.00 | 50 | 1010.8 |
| 20260508164803 | 12 | 293 | 8.0 | 12.9 | 0.00 | 0.00 | 0.00 | 49 | 1010.7 |
| 20260508164303 | 12 | 262 | 8.0 | 14.5 | 0.00 | 0.00 | 0.00 | 50 | 1010.9 |
| 20260508163804 | 12 | 276 | 9.7 | 14.5 | 0.00 | 0.00 | 0.00 | 49 | 1011.0 |
| 20260508163304 | 12 | 287 | 8.0 | 12.9 | 0.00 | 0.00 | 0.00 | 54 | 1011.0 |
| 20260508162758 | 12 | 285 | 6.4 | 12.9 | 0.00 | 0.00 | 0.00 | 51 | 1011.1 |
| 20260508162258 | 12 | 266 | 6.4 | 17.7 | 0.00 | 0.00 | 0.00 | 54 | 1011.2 |
| 20260508161830 | 12 | 276 | 8.0 | 14.5 | 0.00 | 0.00 | 0.00 | 53 | 1011.2 |
| 20260508161818 | 12 | 295 | 8.0 | 17.7 | 0.00 | 0.00 | 0.00 | 58 | 1011.1 |
| 20260508161043 | 12 | 279 | 8.0 | 14.5 | 0.00 | 0.00 | 0.00 | 53 | 1011.2 |
| 20260508160300 | 12 | 291 | 8.0 | 14.5 | 0.00 | 0.00 | 0.00 | 52 | 1011.3 |
| 20260508155801 | 12 | 285 | 8.0 | 14.5 | 0.00 | 0.00 | 0.00 | 53 | 1011.2 |
| 20260508155259 | 12 | 293 | 8.0 | 14.5 | 0.00 | 0.00 | 0.00 | 50 | 1011.2 |
| 20260508154802 | 12 | 285 | 8.0 | 11.3 | 0.00 | 0.00 | 0.00 | 54 | 1011.2 |
| 20260508154256 | 12 | 271 | 8.0 | 11.3 | 0.00 | 0.00 | 0.00 | 48 | 1011.1 |
| 20260508153758 | 12 | 266 | 6.4 | 11.3 | 0.00 | 0.00 | 0.00 | 49 | 1011.0 |
| 20260508153538 | 12 | 311 | 6.4 | 11.3 | 0.00 | 0.00 | 0.00 | 50 | 1011.0 |
| 20260508152755 | 12 | 295 | 6.4 | 11.3 | 0.00 | 0.00 | 0.00 | 60 | 1011.1 |
| 20260508152255 | 12 | 294 | 6.4 | 11.3 | 0.00 | 0.00 | 0.00 | 61 | 1011.1 |
| 20260508151754 | 12 | 293 | 6.4 | 11.3 | 0.00 | 0.00 | 0.00 | 63 | 1011.2 |
| 20260508151255 | 12 | 289 | 4.8 | 11.3 | 0.00 | 0.00 | 0.00 | 61 | 1011.2 |
| 20260508150755 | 12 | 280 | 6.4 | 12.9 | 0.00 | 0.00 | 0.00 | 58 | 1011.3 |
| 20260508150255 | 12 | 281 | 6.4 | 12.9 | 0.00 | 0.00 | 0.00 | 57 | 1011.3 |
| 20260508145756 | 12 | 284 | 4.8 | 11.3 | 0.00 | 0.00 | 0.00 | 59 | 1011.3 |
| 20260508145256 | 12 | 314 | 4.8 | 11.3 | 0.00 | 0.00 | 0.00 | 61 | 1011.4 |
| 20260508144755 | 12 | 293 | 4.8 | 11.3 | 0.00 | 0.00 | 0.00 | 62 | 1011.3 |
| 20260508144255 | 12 | 271 | 3.2 | 9.7 | 0.00 | 0.00 | 0.00 | 60 | 1011.4 |
| 20260508143755 | 12 | 295 | 6.4 | 12.9 | 0.00 | 0.00 | 0.00 | 64 | 1011.4 |
| 20260508143256 | 12 | 295 | 4.8 | 12.9 | 0.00 | 0.00 | 0.00 | 63 | 1011.4 |
| 20260508142754 | 12 | 288 | 1.6 | 11.3 | 0.00 | 0.00 | 0.00 | 68 | 1011.4 |
| 20260508142254 | 12 | 274 | 1.6 | 8.0 | 0.00 | 0.00 | 0.00 | 63 | 1011.4 |
| 20260508141755 | 12 | 213 | 0.0 | 4.8 | 0.00 | 0.00 | 0.00 | 63 | 1011.4 |
| 20260508141248 | 12 | 203 | 0.0 | 6.4 | 0.00 | 0.00 | 0.00 | 66 | 1011.6 |
| 20260508141040 | 12 | 219 | 1.6 | 6.4 | 0.00 | 0.00 | 0.00 | 72 | 1011.6 |
| 20260508140237 | 11 | 261 | 1.6 | 6.4 | 0.00 | 0.00 | 0.00 | 74 | 1011.5 |
| 20260508135731 | 11 | 271 | 3.2 | 9.7 | 0.00 | 0.00 | 0.00 | 73 | 1011.6 |
| 20260508135225 | 11 | 248 | 3.2 | 9.7 | 0.00 | 0.00 | 0.00 | 72 | 1011.7 |
| 20260508134719 | 11 | 287 | 1.6 | 8.0 | 0.00 | 0.00 | 0.00 | 70 | 1011.7 |
| 20260508134451 | 12 | 270 | 0.0 | 4.8 | 0.00 | 0.00 | 0.00 | 68 | 1011.6 |
| 20260508133945 | 11 | 217 | 1.6 | 4.8 | 0.00 | 0.00 | 0.00 | 68 | 1011.6 |
| 20260508133201 | 11 | 236 | 1.6 | 8.0 | 0.00 | 0.00 | 0.00 | 71 | 1011.6 |
| 20260508132655 | 11 | 297 | 1.6 | 8.0 | 0.00 | 0.00 | 0.00 | 70 | 1011.6 |
| 20260508132149 | 11 | 279 | 1.6 | 4.8 | 0.00 | 0.00 | 0.00 | 69 | 1011.6 |
| 20260508131643 | 11 | 282 | 1.6 | 4.8 | 0.00 | 0.00 | 0.00 | 68 | 1011.7 |
| 20260508131137 | 11 | 283 | 0.0 | 3.2 | 0.00 | 0.00 | 0.00 | 68 | 1011.8 |
| 20260508130631 | 11 | 186 | 0.0 | 3.2 | 0.00 | 0.00 | 0.00 | 69 | 1011.8 |
| 20260508130124 | 11 | 195 | 0.0 | 4.8 | 0.00 | 0.00 | 0.00 | 72 | 1011.8 |
| 20260508125859 | 11 | 215 | 0.0 | 4.8 | 0.00 | 0.00 | 0.00 | 72 | 1011.8 |
| 20260508125350 | 10 | 203 | 0.0 | 1.6 | 0.00 | 0.00 | 0.00 | 75 | 1011.8 |
| 20260508124607 | 10 | 62 | 0.0 | 1.6 | 0.00 | 0.00 | 0.00 | 75 | 1011.8 |
| 20260508124338 | 10 | 62 | 0.0 | 1.6 | 0.00 | 0.00 | 0.00 | 73 | 1011.8 |
| 20260508123555 | 11 | 82 | 0.0 | 0.0 | 0.00 | 0.00 | 0.00 | 69 | 1011.8 |
| 20260508123048 | 11 | 149 | 0.0 | 0.0 | 0.00 | 0.00 | 0.00 | 72 | 1011.9 |
| 20260508122543 | 10 | 149 | 0.0 | 0.0 | 0.00 | 0.00 | 0.00 | 73 | 1011.8 |
| 20260508122037 | 9 | 149 | 0.0 | 0.0 | 0.00 | 0.00 | 0.00 | 78 | 1011.9 |
| 20260508121531 | 7 | 149 | 0.0 | 0.0 | 0.00 | 0.00 | 0.00 | 81 | 1011.8 |
| 20260508121025 | 6 | 149 | 0.0 | 0.0 | 0.00 | 0.00 | 0.00 | 84 | 1011.7 |
| 20260508120518 | 5 | 149 | 0.0 | 0.0 | 0.00 | 0.00 | 0.00 | 84 | 1011.7 |
| 20260508120251 | 5 | 149 | 0.0 | 0.0 | 0.00 | 0.00 | 0.00 | 85 | 1011.6 |
| 20260508115507 | 5 | 149 | 0.0 | 0.0 | 0.00 | 0.00 | 0.00 | 85 | 1011.4 |
| 20260508115002 | 4 | 149 | 0.0 | 0.0 | 0.00 | 0.00 | 0.00 | 87 | 1011.2 |
| 20260508114455 | 3 | 149 | 0.0 | 1.6 | 0.00 | 0.00 | 0.00 | 87 | 1011.2 |
| 20260508113951 | 3 | 156 | 0.0 | 1.6 | 0.00 | 0.00 | 0.00 | 88 | 1011.1 |
| 20260508113442 | 3 | 156 | 1.6 | 3.2 | 0.00 | 0.00 | 0.00 | 89 | 1011.1 |
| 20260508112937 | 2 | 156 | 3.2 | 4.8 | 0.00 | 0.00 | 0.00 | 89 | 1011.0 |
| 20260508112431 | 2 | 165 | 1.6 | 4.8 | 0.00 | 0.00 | 0.00 | 89 | 1011.0 |
| 20260508111925 | 2 | 163 | 1.6 | 3.2 | 0.00 | 0.00 | 0.00 | 90 | 1011.0 |
| 20260508111418 | 2 | 175 | 3.2 | 3.2 | 0.00 | 0.00 | 0.00 | 90 | 1010.9 |
| 20260508111156 | 1 | 165 | 3.2 | 3.2 | 0.00 | 0.00 | 0.00 | 91 | 1011.0 |
| 20260508110406 | 1 | 162 | 1.6 | 3.2 | 0.00 | 0.00 | 0.00 | 91 | 1011.0 |
| 20260508105900 | 1 | 168 | 3.2 | 4.8 | 0.00 | 0.00 | 0.00 | 92 | 1011.0 |
| 20260508105355 | 1 | 162 | 3.2 | 4.8 | 0.00 | 0.00 | 0.00 | 92 | 1011.1 |
| 20260508104849 | 1 | 164 | 3.2 | 3.2 | 0.00 | 0.00 | 0.00 | 92 | 1011.1 |
| 20260508104343 | 1 | 158 | 3.2 | 3.2 | 0.00 | 0.00 | 0.00 | 92 | 1011.1 |
| 20260508104117 | 1 | 165 | 3.2 | 3.2 | 0.00 | 0.00 | 0.00 | 92 | 1011.0 |
| 20260508103331 | 1 | 166 | 3.2 | 3.2 | 0.00 | 0.00 | 0.00 | 92 | 1011.0 |
| 20260508102825 | 1 | 163 | 3.2 | 3.2 | 0.00 | 0.00 | 0.00 | 91 | 1010.9 |
| 20260508102559 | 1 | 168 | 3.2 | 3.2 | 0.00 | 0.00 | 0.00 | 91 | 1010.9 |